SCP
0 -0 -0 -0 -0 -0 -0 -0 -0 0 -0 0 -0 0 -0 0 0 0 0 0 0 0 0 0 0 0 0 0 0 0 0 0 0 0 0 0 0 0 0 0 0 0 0
0 0 0 -0 -0 0 0 0 0 0 0 0 0 0 0 0 0 0 0 0 0 0 0 0 0 0 0 0 0 0 0 0 0 0 0 0 0 0 0 -0 0 -0 -0
0 0 0 0 0 0 0 0 0 0 0 0 0 0 0 0 0 0 0 0 0 0 0 0 0 0 0 0 0 0 0 0 0 0 0 0 0 -0 -0 -0 0 0 0
0 0 0 0 0 0 0 0 0 0 0 0 0 0 0 0 0 0 0 0 0 0 0 0 0 0 0 0 0 0 0 0 0 0 0 0 0 0 0 -0 0 0 0
0 0 0 0 0 0 0 0 0 0 0 0 0 0 0 0 0 0 0 0 0 0 0 0 0 0 0 0 0 0 0 0 0 0 0 0 0 0 0 0 -0 0 0
0 0 0 0 0 0 0 0 0 0 0 0 0 0 0 0 0 0 0 0 0 0 0 0 0 0 0 0 0 0 0 0 0 0 0 0 0 0 0 0 0 -0 -0
0 0 0 0 0 0 0 0 0 0 0 0 0 0 0 0 0 0 0 0 0 0 0 0 0 0 0 0 0 0 0 0 0 0 0 0 0 0 0 0 0 0 -0
0 0 0 0 0 0 0 0 0 0 0 0 0 0 0 0 0 0 0 0 0 0 0 0 0 0 0 0 0 0 0 0 0 0 0 0 0 0 0 0 0 0 0
0 0 0 0 0 0 0 0 0 0 0 0 0 0 0 0 0 0 0 0 0 0 0 0 0 0 0 0 0 0 0 0 0 0 0 0 0 0 0 0 0 0 0
0 0 0 0 0 0 0 0 0 0 0 0 0 0 0 0 0 0 0 0 0 0 0 0 0 0 0 0 0 0 0 0 0 0 0 0 0 0 0 0 0 0 0
0 0 0 0 0 0 0 0 0 0 0 0 0 0 0 0 0 0 0 0 0 0 0 0 0 0 0 0 0 0 0 0 0 0 0 0 0 0 0 0 0 0 0
0 0 0 0 0 0 0 0 0 0 0 0 0 0 0 0 0 0 0 0 0 0 0 0 0 0 0 0 0 0 0 0 0 0 0 0 0 0 0 0 0 0 0
0 0 0 0 0 0 0 0 0 0 0 0 0 0 0 0 0 0 0 0 0 0 0 0 0 0 0 0 0 0 0 0 0 0 0 0 0 0 0 0 0 0 0
0 0 0 0 0 0 0 0 0 0 0 0 0 0 0 0 0 0 0 0 0 0 0 0 0 0 0 0 0 0 0 0 0 0 0 0 0 0 0 0 0 0 0
0 0 0 0 0 0 0 0 0 0 0 0 0 0 0 0 0 0 0 0 0 0 0 0 0 0 0 0 0 0 0 0 0 0 0 0 0 0 0 0 0 0 0
0 0 0 0 0 0 0 0 0 0 0 0 0 0 0 0 0 0 0 0 0 0 0 0 0 0 0 0 0 0 0 0 0 0 0 0 0 0 0 0 0 0 0
0 0 0 0 0 0 0 0 0 0 0 0 0 0 0 0 0 0 0 0 0 0 0 0 0 0 0 0 0 0 0 0 0 0 0 0 0 0 0 0 0 0 0
0 0 0 0 0 0 0 0 0 0 0 0 0 0 0 0 0 0 0 0 0 0 0 0 0 0 0 0 0 0 0 0 0 0 0 0 0 0 0 0 0 0 0
0 0 0 0 0 0 0 0 0 0 0 0 0 0 0 0 0 0 0 0 0 0 0 0 0 0 0 0 0 0 0 0 0 0 0 0 0 0 0 0 0 0 0
0 0 0 0 0 0 0 0 0 0 0 0 0 0 0 0 0 0 0 0 0 0 0 0 0 0 0 0 0 0 0 0 0 0 0 0 0 0 0 0 0 0 0
0 0 0 0 0 0 0 0 0 0 0 0 0 0 0 0 0 0 0 0 0 0 0 0 0 0 0 0 0 0 0 0 0 0 0 0 0 0 0 0 0 0 0
0 0 0 0 0 0 0 0 0 0 0 0 0 0 0 0 0 0 0 0 0 0 0 0 0 0 0 0 0 0 0 0 0 0 0 0 0 0 0 0 0 0 0
0 0 0 0 0 0 0 0 0 0 0 0 0 0 0 0 0 0 0 0 0 0 0 0 0 0 0 0 0 0 0 0 0 0 0 0 0 0 0 0 0 0 0
0 0 0 0 0 0 0 0 0 0 0 0 0 0 0 0 0 0 0 0 0 0 0 0 0 0 0 0 0 0 0 0 0 0 0 0 0 0 0 -0 -0 0 0
0 0 0 0 0 0 0 0 0 0 0 0 0 0 0 0 0 0 0 0 0 0 0 0 0 0 0 0 0 0 0 0 0 0 0 0 -0 -0 -0 0 0 0 0
0 0 0 0 0 0 0 0 0 0 0 0 0 0 0 0 0 0 0 0 0 0 0 0 0 0 0 0 0 0 0 -0 0 0 0 0 0 0 -0 -0 0 0 0
Wind_Speed_500mb
49 49 48 47 46 37 36 38 40 35 31 27 29 29 26 29 30 33 31 30 27 26 25 25 20 18 18 17 16 17 19 23 25 26 31 25 17 12 12 13 17 19 25
42 49 50 47 41 39 36 33 36 35 27 27 26 27 25 25 29 29 31 30 31 31 27 30 26 26 24 21 19 19 22 24 23 29 26 22 17 18 21 26 27 31 37
44 48 50 49 47 42 37 33 31 34 33 27 32 32 30 30 29 33 32 28 28 29 28 21 16 21 20 19 19 17 20 20 20 18 19 22 24 31 33 32 30 33 26
50 46 50 51 47 43 37 35 37 32 31 34 33 33 34 31 33 35 33 32 31 27 30 29 23 22 19 19 19 21 19 18 17 20 25 27 27 25 28 33 30 28 27
54 46 46 45 45 43 42 41 35 37 30 26 28 28 34 36 37 38 38 35 32 32 31 36 32 30 30 24 24 21 23 24 26 26 21 20 22 26 28 29 31 30 23
54 47 49 48 47 47 46 43 37 38 37 33 32 28 25 36 35 32 31 32 35 33 32 36 40 32 28 27 28 28 26 23 24 27 25 26 26 26 24 24 27 31 31
54 48 47 47 55 51 49 41 42 39 41 40 38 27 24 28 29 26 29 29 33 32 31 34 33 33 34 29 35 26 22 25 26 26 31 31 29 26 23 19 20 24 25
45 57 40 38 37 50 53 50 38 44 44 44 46 32 23 30 28 27 32 34 37 36 36 35 33 31 28 28 28 29 29 28 29 31 32 31 25 20 20 19 18 19 22
43 47 43 44 44 32 31 40 43 44 42 42 40 47 36 33 32 28 30 35 38 38 38 39 38 37 36 34 34 33 32 30 29 26 26 21 20 20 19 16 15 19 25
35 37 32 24 21 23 28 28 25 27 38 29 31 49 48 43 40 33 31 31 32 35 40 36 33 28 28 28 27 27 24 21 18 17 17 16 16 17 14 13 17 22 30
33 18 16 21 25 29 25 24 26 28 33 39 44 44 40 38 33 27 26 28 25 28 24 21 18 17 16 15 16 16 16 16 17 17 19 19 16 15 15 19 25 28 30
31 46 30 28 30 25 21 20 22 22 25 27 30 32 34 33 31 31 31 22 22 22 19 15 17 12 10 11 13 14 13 14 18 21 21 20 20 20 18 22 28 31 32
24 27 33 31 29 23 21 19 19 17 13 15 19 20 21 23 21 22 20 20 23 27 22 20 16 7 17 16 15 14 15 16 18 20 21 23 23 23 23 23 26 26 23
26 22 20 24 27 25 22 20 24 24 23 22 24 21 21 19 19 21 21 20 21 18 14 9 8 15 20 19 18 18 19 20 20 20 18 18 21 22 23 18 14 14 15
15 19 20 21 22 17 25 30 32 29 24 24 21 17 15 12 10 8 6 1 9 9 10 16 20 25 25 21 22 22 18 18 17 17 18 17 15 13 16 20 23 26 28
14 11 11 14 12 14 18 21 19 16 17 25 36 30 19 13 8 5 7 9 10 19 23 24 22 24 25 26 23 22 19 16 14 13 11 10 14 17 19 22 25 28 30
10 10 9 4 5 8 11 13 16 19 16 14 12 11 16 13 16 19 25 22 17 20 21 20 21 20 18 15 13 12 10 8 6 7 12 14 16 19 21 23 24 26 30
10 9 9 11 7 5 4 6 7 6 12 18 24 23 23 27 30 36 32 28 19 19 20 16 15 12 10 10 10 9 8 7 7 9 11 15 19 23 27 29 32 33 34
8 10 11 9 8 11 12 10 9 10 12 9 8 12 19 25 26 23 22 20 26 23 26 19 14 14 12 12 10 10 8 7 9 12 15 19 22 24 27 29 31 32 32
13 17 18 18 18 20 19 18 17 17 18 16 14 16 14 12 11 11 16 19 24 24 18 11 13 14 12 9 7 7 9 9 10 15 20 22 23 25 28 28 29 29 30
20 20 20 20 21 19 20 19 20 22 21 21 18 16 12 7 6 8 12 18 19 17 14 16 19 17 13 10 8 7 8 12 14 16 20 23 24 24 26 27 26 25 24
21 22 22 24 27 28 28 29 29 29 29 23 25 20 20 16 11 13 16 17 16 18 19 21 20 16 12 9 9 7 9 11 13 16 19 22 25 26 25 23 21 18 18
25 23 21 20 21 20 22 27 27 27 24 23 30 30 29 25 20 19 21 17 14 15 15 13 13 12 11 11 9 8 9 12 15 18 22 24 24 23 22 20 18 15 14
31 30 27 26 24 25 21 19 28 31 30 28 26 30 31 29 21 19 25 18 16 14 12 11 12 11 9 9 9 8 8 11 14 17 20 22 22 21 19 17 18 19 19
37 34 33 32 33 32 30 24 23 30 34 28 27 32 35 31 22 24 28 19 14 9 7 6 6 7 9 9 7 8 10 13 13 16 17 18 20 20 17 17 20 21 20
40 45 51 47 44 43 43 38 34 34 34 32 27 33 40 36 28 30 29 22 16 8 6 5 6 6 9 8 7 9 10 10 11 13 14 15 16 18 17 16 16 18 19
Wind_Direction_500mb
212 209 209 209 208 215 218 216 217 219 224 238 225 224 234 246 251 235 234 239 243 239 242 243 244 243 244 255 272 278 284 289 289 293 302 305 314 322 325 331 326 324 325
222 215 214 215 216 217 220 223 220 224 229 222 224 220 231 247 238 236 241 237 248 240 247 247 250 250 254 265 274 286 286 276 278 295 301 303 293 303 311 300 301 306 313
226 220 219 218 221 221 219 218 225 228 231 233 237 231 235 243 243 241 247 249 247 243 238 242 258 251 248 252 266 273 289 291 290 298 296 305 306 309 304 304 304 301 312
223 219 222 221 221 225 224 227 225 229 229 235 238 241 238 243 242 241 246 249 247 243 228 235 244 252 250 249 257 272 273 274 275 283 297 302 306 310 318 317 317 321 330
217 213 218 217 221 222 220 217 220 221 228 235 239 248 240 235 233 242 243 245 253 254 241 236 234 243 254 251 256 259 260 272 279 285 293 301 309 313 318 319 324 330 339
211 215 213 217 227 223 222 226 232 232 229 228 236 244 247 239 236 238 245 250 251 250 247 247 241 237 245 253 264 275 273 272 280 288 288 303 307 308 309 314 323 335 351
207 211 221 227 232 228 226 226 241 236 237 243 241 237 244 256 252 236 235 248 247 251 249 246 239 241 247 257 262 263 269 276 280 277 287 293 296 295 299 308 324 345 351
217 219 227 235 246 242 229 242 255 234 241 244 237 237 242 263 255 247 242 250 248 242 239 236 236 242 243 253 260 261 264 263 266 270 275 274 279 272 283 304 330 347 346
230 216 232 235 242 241 247 252 252 249 236 228 232 224 233 260 262 256 252 250 247 243 239 237 238 242 252 258 259 260 259 256 259 261 262 265 270 275 282 297 306 322 333
225 224 225 230 233 248 244 248 250 255 242 224 235 224 247 252 259 257 256 251 243 243 247 249 254 253 262 253 243 239 239 241 238 235 243 258 262 260 265 289 310 320 326
223 221 251 265 267 261 249 243 247 243 239 231 234 242 251 253 252 241 238 241 238 235 235 238 222 225 239 233 229 226 229 225 216 219 217 216 223 245 271 296 306 313 316
193 212 253 244 240 240 235 239 237 231 231 234 237 241 240 238 240 241 242 244 229 215 212 215 220 198 218 224 230 232 226 218 217 218 225 236 256 275 296 307 309 310 311
195 206 228 225 249 243 236 229 220 211 214 222 221 223 229 226 223 228 223 222 219 212 203 210 226 258 260 254 249 239 227 232 237 247 258 266 278 289 298 303 298 299 298
188 202 205 220 219 219 232 225 217 213 225 232 230 222 218 225 227 224 223 223 230 227 216 230 218 253 258 260 243 237 240 249 257 265 267 276 286 294 296 295 295 295 293
178 186 189 203 202 221 225 218 220 219 217 211 198 193 182 170 161 166 163 67 282 253 229 219 218 238 245 242 241 247 248 258 265 271 275 282 284 294 306 317 321 323 325
187 187 216 225 227 242 252 261 254 237 219 219 211 201 200 204 207 235 285 297 266 243 234 229 227 229 237 245 246 254 260 263 264 267 277 289 306 318 324 327 329 329 331
157 174 191 180 252 266 270 270 275 277 274 249 235 213 228 235 264 291 302 302 274 247 240 233 232 225 231 242 248 255 255 247 263 295 309 319 326 328 331 332 334 335 341
179 194 196 213 214 238 303 337 342 317 282 269 268 261 256 258 251 271 278 278 252 227 219 220 225 226 235 252 258 261 275 295 312 317 324 334 340 341 339 341 339 341 340
200 211 228 238 242 234 238 250 277 304 319 316 318 302 289 275 267 255 256 237 238 214 212 203 230 254 266 270 277 277 281 311 325 333 337 337 338 337 335 338 337 336 337
228 231 239 246 247 247 249 254 260 276 289 280 296 322 310 271 275 251 219 213 207 206 204 226 243 258 269 268 267 281 301 315 326 334 332 331 332 333 335 334 333 334 338
243 243 244 243 239 242 251 259 262 259 266 262 270 302 296 300 288 253 223 218 226 236 255 270 274 270 265 259 261 277 299 313 328 330 329 329 333 333 332 333 334 336 340
264 262 255 247 247 251 256 261 267 271 266 254 241 257 258 254 268 283 263 245 252 268 273 271 267 258 242 238 248 267 292 303 318 327 327 330 332 333 332 327 329 337 341
270 268 258 245 243 252 260 254 259 266 264 256 241 245 244 243 257 269 250 255 281 292 282 266 252 249 252 259 275 305 321 327 329 329 331 335 337 338 339 340 342 343 348
269 264 264 255 248 250 257 269 259 259 265 259 246 238 240 245 252 264 243 255 284 290 284 265 261 262 263 278 294 305 324 334 329 332 340 345 350 354 357 1 7 7 9
270 265 263 265 262 260 256 256 268 256 253 254 256 245 234 233 236 235 236 251 273 299 320 292 287 294 289 289 295 309 322 331 339 353 356 0 8 9 15 29 33 34 27
260 271 271 261 259 262 263 260 253 259 257 253 262 242 231 233 231 226 230 246 264 273 301 305 296 284 282 285 281 308 320 339 2 3 1 11 20 26 41 53 51 48 40
Wind_Speed_850mb
49 49 48 47 46 37 36 38 40 35 31 27 29 29 26 29 30 33 31 30 27 26 25 25 20 18 18 17 16 17 19 23 25 26 31 25 17 12 12 13 17 19 25
42 49 50 47 41 39 36 33 36 35 27 27 26 27 25 25 29 29 31 30 31 31 27 30 26 26 24 21 19 19 22 24 23 29 26 22 17 18 21 26 27 31 37
44 48 50 49 47 42 37 33 31 34 33 27 32 32 30 30 29 33 32 28 28 29 28 21 16 21 20 19 19 17 20 20 20 18 19 22 24 31 33 32 30 33 26
50 46 50 51 47 43 37 35 37 32 31 34 33 33 34 31 33 35 33 32 31 27 30 29 23 22 19 19 19 21 19 18 17 20 25 27 27 25 28 33 30 28 27
54 46 46 45 45 43 42 41 35 37 30 26 28 28 34 36 37 38 38 35 32 32 31 36 32 30 30 24 24 21 23 24 26 26 21 20 22 26 28 29 31 30 23
54 47 49 48 47 47 46 43 37 38 37 33 32 28 25 36 35 32 31 32 35 33 32 36 40 32 28 27 28 28 26 23 24 27 25 26 26 26 24 24 27 31 31
54 48 47 47 55 51 49 41 42 39 41 40 38 27 24 28 29 26 29 29 33 32 31 34 33 33 34 29 35 26 22 25 26 26 31 31 29 26 23 19 20 24 25
45 57 40 38 37 50 53 50 38 44 44 44 46 32 23 30 28 27 32 34 37 36 36 35 33 31 28 28 28 29 29 28 29 31 32 31 25 20 20 19 18 19 22
43 47 43 44 44 32 31 40 43 44 42 42 40 47 36 33 32 28 30 35 38 38 38 39 38 37 36 34 34 33 32 30 29 26 26 21 20 20 19 16 15 19 25
35 37 32 24 21 23 28 28 25 27 38 29 31 49 48 43 40 33 31 31 32 35 40 36 33 28 28 28 27 27 24 21 18 17 17 16 16 17 14 13 17 22 30
33 18 16 21 25 29 25 24 26 28 33 39 44 44 40 38 33 27 26 28 25 28 24 21 18 17 16 15 16 16 16 16 17 17 19 19 16 15 15 19 25 28 30
31 46 30 28 30 25 21 20 22 22 25 27 30 32 34 33 31 31 31 22 22 22 19 15 17 12 10 11 13 14 13 14 18 21 21 20 20 20 18 22 28 31 32
24 27 33 31 29 23 21 19 19 17 13 15 19 20 21 23 21 22 20 20 23 27 22 20 16 7 17 16 15 14 15 16 18 20 21 23 23 23 23 23 26 26 23
26 22 20 24 27 25 22 20 24 24 23 22 24 21 21 19 19 21 21 20 21 18 14 9 8 15 20 19 18 18 19 20 20 20 18 18 21 22 23 18 14 14 15
15 19 20 21 22 17 25 30 32 29 24 24 21 17 15 12 10 8 6 1 9 9 10 16 20 25 25 21 22 22 18 18 17 17 18 17 15 13 16 20 23 26 28
14 11 11 14 12 14 18 21 19 16 17 25 36 30 19 13 8 5 7 9 10 19 23 24 22 24 25 26 23 22 19 16 14 13 11 10 14 17 19 22 25 28 30
10 10 9 4 5 8 11 13 16 19 16 14 12 11 16 13 16 19 25 22 17 20 21 20 21 20 18 15 13 12 10 8 6 7 12 14 16 19 21 23 24 26 30
10 9 9 11 7 5 4 6 7 6 12 18 24 23 23 27 30 36 32 28 19 19 20 16 15 12 10 10 10 9 8 7 7 9 11 15 19 23 27 29 32 33 34
8 10 11 9 8 11 12 10 9 10 12 9 8 12 19 25 26 23 22 20 26 23 26 19 14 14 12 12 10 10 8 7 9 12 15 19 22 24 27 29 31 32 32
13 17 18 18 18 20 19 18 17 17 18 16 14 16 14 12 11 11 16 19 24 24 18 11 13 14 12 9 7 7 9 9 10 15 20 22 23 25 28 28 29 29 30
20 20 20 20 21 19 20 19 20 22 21 21 18 16 12 7 6 8 12 18 19 17 14 16 19 17 13 10 8 7 8 12 14 16 20 23 24 24 26 27 26 25 24
21 22 22 24 27 28 28 29 29 29 29 23 25 20 20 16 11 13 16 17 16 18 19 21 20 16 12 9 9 7 9 11 13 16 19 22 25 26 25 23 21 18 18
25 23 21 20 21 20 22 27 27 27 24 23 30 30 29 25 20 19 21 17 14 15 15 13 13 12 11 11 9 8 9 12 15 18 22 24 24 23 22 20 18 15 14
31 30 27 26 24 25 21 19 28 31 30 28 26 30 31 29 21 19 25 18 16 14 12 11 12 11 9 9 9 8 8 11 14 17 20 22 22 21 19 17 18 19 19
37 34 33 32 33 32 30 24 23 30 34 28 27 32 35 31 22 24 28 19 14 9 7 6 6 7 9 9 7 8 10 13 13 16 17 18 20 20 17 17 20 21 20
40 45 51 47 44 43 43 38 34 34 34 32 27 33 40 36 28 30 29 22 16 8 6 5 6 6 9 8 7 9 10 10 11 13 14 15 16 18 17 16 16 18 19
Wind_Direction_850mb
212 209 209 209 208 215 218 216 217 219 224 238 225 224 234 246 251 235 234 239 243 239 242 243 244 243 244 255 272 278 284 289 289 293 302 305 314 322 325 331 326 324 325
222 215 214 215 216 217 220 223 220 224 229 222 224 220 231 247 238 236 241 237 248 240 247 247 250 250 254 265 274 286 286 276 278 295 301 303 293 303 311 300 301 306 313
226 220 219 218 221 221 219 218 225 228 231 233 237 231 235 243 243 241 247 249 247 243 238 242 258 251 248 252 266 273 289 291 290 298 296 305 306 309 304 304 304 301 312
223 219 222 221 221 225 224 227 225 229 229 235 238 241 238 243 242 241 246 249 247 243 228 235 244 252 250 249 257 272 273 274 275 283 297 302 306 310 318 317 317 321 330
217 213 218 217 221 222 220 217 220 221 228 235 239 248 240 235 233 242 243 245 253 254 241 236 234 243 254 251 256 259 260 272 279 285 293 301 309 313 318 319 324 330 339
211 215 213 217 227 223 222 226 232 232 229 228 236 244 247 239 236 238 245 250 251 250 247 247 241 237 245 253 264 275 273 272 280 288 288 303 307 308 309 314 323 335 351
207 211 221 227 232 228 226 226 241 236 237 243 241 237 244 256 252 236 235 248 247 251 249 246 239 241 247 257 262 263 269 276 280 277 287 293 296 295 299 308 324 345 351
217 219 227 235 246 242 229 242 255 234 241 244 237 237 242 263 255 247 242 250 248 242 239 236 236 242 243 253 260 261 264 263 266 270 275 274 279 272 283 304 330 347 346
230 216 232 235 242 241 247 252 252 249 236 228 232 224 233 260 262 256 252 250 247 243 239 237 238 242 252 258 259 260 259 256 259 261 262 265 270 275 282 297 306 322 333
225 224 225 230 233 248 244 248 250 255 242 224 235 224 247 252 259 257 256 251 243 243 247 249 254 253 262 253 243 239 239 241 238 235 243 258 262 260 265 289 310 320 326
223 221 251 265 267 261 249 243 247 243 239 231 234 242 251 253 252 241 238 241 238 235 235 238 222 225 239 233 229 226 229 225 216 219 217 216 223 245 271 296 306 313 316
193 212 253 244 240 240 235 239 237 231 231 234 237 241 240 238 240 241 242 244 229 215 212 215 220 198 218 224 230 232 226 218 217 218 225 236 256 275 296 307 309 310 311
195 206 228 225 249 243 236 229 220 211 214 222 221 223 229 226 223 228 223 222 219 212 203 210 226 258 260 254 249 239 227 232 237 247 258 266 278 289 298 303 298 299 298
188 202 205 220 219 219 232 225 217 213 225 232 230 222 218 225 227 224 223 223 230 227 216 230 218 253 258 260 243 237 240 249 257 265 267 276 286 294 296 295 295 295 293
178 186 189 203 202 221 225 218 220 219 217 211 198 193 182 170 161 166 163 67 282 253 229 219 218 238 245 242 241 247 248 258 265 271 275 282 284 294 306 317 321 323 325
187 187 216 225 227 242 252 261 254 237 219 219 211 201 200 204 207 235 285 297 266 243 234 229 227 229 237 245 246 254 260 263 264 267 277 289 306 318 324 327 329 329 331
157 174 191 180 252 266 270 270 275 277 274 249 235 213 228 235 264 291 302 302 274 247 240 233 232 225 231 242 248 255 255 247 263 295 309 319 326 328 331 332 334 335 341
179 194 196 213 214 238 303 337 342 317 282 269 268 261 256 258 251 271 278 278 252 227 219 220 225 226 235 252 258 261 275 295 312 317 324 334 340 341 339 341 339 341 340
200 211 228 238 242 234 238 250 277 304 319 316 318 302 289 275 267 255 256 237 238 214 212 203 230 254 266 270 277 277 281 311 325 333 337 337 338 337 335 338 337 336 337
228 231 239 246 247 247 249 254 260 276 289 280 296 322 310 271 275 251 219 213 207 206 204 226 243 258 269 268 267 281 301 315 326 334 332 331 332 333 335 334 333 334 338
243 243 244 243 239 242 251 259 262 259 266 262 270 302 296 300 288 253 223 218 226 236 255 270 274 270 265 259 261 277 299 313 328 330 329 329 333 333 332 333 334 336 340
264 262 255 247 247 251 256 261 267 271 266 254 241 257 258 254 268 283 263 245 252 268 273 271 267 258 242 238 248 267 292 303 318 327 327 330 332 333 332 327 329 337 341
270 268 258 245 243 252 260 254 259 266 264 256 241 245 244 243 257 269 250 255 281 292 282 266 252 249 252 259 275 305 321 327 329 329 331 335 337 338 339 340 342 343 348
269 264 264 255 248 250 257 269 259 259 265 259 246 238 240 245 252 264 243 255 284 290 284 265 261 262 263 278 294 305 324 334 329 332 340 345 350 354 357 1 7 7 9
270 265 263 265 262 260 256 256 268 256 253 254 256 245 234 233 236 235 236 251 273 299 320 292 287 294 289 289 295 309 322 331 339 353 356 0 8 9 15 29 33 34 27
260 271 271 261 259 262 263 260 253 259 257 253 262 242 231 233 231 226 230 246 264 273 301 305 296 284 282 285 281 308 320 339 2 3 1 11 20 26 41 53 51 48 40